GFSFLT1_sfc_rhum_132.txt.gz
RH
40 38 36 34 36 38 40 44 49 45 40 41 38 36 41 42 43 48 56 51 57 56 52 60 63 82 84 76 71 71 74 75
37 38 37 35 38 39 40 46 50 42 37 37 37 41 42 41 39 50 52 54 58 56 52 55 57 58 74 86 91 90 71 63
39 39 42 44 45 46 45 45 48 47 39 39 41 42 40 41 40 45 50 55 59 53 60 56 58 57 60 64 75 90 91 86
40 43 48 49 52 52 48 48 48 51 52 41 40 38 37 38 40 40 47 53 58 62 59 60 61 59 57 63 63 70 89 87
40 43 47 50 53 53 50 51 49 48 52 49 55 46 45 45 44 43 47 52 55 58 62 63 65 61 63 60 53 62 74 89
45 50 53 47 47 49 50 49 49 51 51 54 50 54 49 46 47 53 52 51 52 54 62 67 66 65 65 72 72 67 61 61
53 54 47 43 43 48 49 49 47 50 53 55 59 60 57 54 55 54 51 51 50 55 59 65 69 73 73 70 71 74 75 75
59 55 48 45 47 49 47 49 52 53 56 56 56 59 60 59 62 58 61 56 56 59 63 66 66 67 72 74 75 74 74 76
59 54 49 46 49 50 50 51 54 55 58 59 58 60 59 58 62 64 61 62 62 63 63 65 69 71 73 75 77 78 78 81
57 52 49 47 48 55 59 58 56 60 64 63 62 60 63 63 64 62 62 64 61 64 65 66 68 71 74 75 78 81 81 82
59 49 50 47 49 50 60 63 63 63 64 63 61 62 62 62 62 66 67 66 65 66 67 64 65 66 67 72 75 76 80 82
56 48 48 48 49 52 58 64 67 67 66 63 64 64 64 64 65 66 67 67 66 65 65 65 64 63 66 71 74 74 76 78
53 51 49 49 51 50 54 59 68 72 67 66 68 68 67 69 69 68 71 68 67 66 67 67 66 65 65 67 71 77 80 83
53 51 51 51 48 47 46 53 61 63 66 67 69 71 73 75 75 74 73 70 66 65 65 68 72 72 67 70 74 79 83 82
49 49 52 52 47 46 41 44 46 51 56 60 65 67 70 73 73 75 77 73 72 69 69 69 76 74 72 71 72 74 79 86
52 56 54 50 49 43 41 49 50 50 55 66 78 73 68 69 71 74 73 72 72 72 72 71 75 75 85 81 75 74 76 88
59 58 53 55 47 45 50 62 66 63 68 82 87 81 82 84 83 82 77 72 76 83 80 77 80 78 90 90 86 85 83 90
67 67 70 65 65 59 66 73 66 73 80 82 83 84 84 83 82 80 84 86 83 82 89 91 94 93 78 88 93 93 92 95
77 79 76 79 75 71 74 74 80 81 85 85 83 82 81 81 82 81 83 92 87 86 83 87 87 88 78 79 81 92 95 96

GFSFLT1_sfc_rhum_135.txt.gz
RH
35 34 33 31 32 34 36 40 44 40 36 37 38 37 41 40 40 46 53 50 54 54 48 55 56 53 57 69 81 80 76 74
34 35 35 35 38 38 40 45 48 40 33 34 34 36 36 35 36 44 47 50 55 55 50 52 51 52 57 60 60 81 83 78
36 38 40 43 44 45 44 44 46 46 39 38 38 36 34 34 34 38 43 48 53 50 58 55 56 56 58 58 61 62 66 72
37 41 44 44 47 47 43 43 43 47 48 40 41 38 38 37 38 36 43 46 50 55 55 58 61 58 55 60 59 63 61 58
36 38 44 45 47 48 43 41 40 42 47 44 50 43 43 42 41 40 44 46 48 50 55 57 61 58 62 59 53 65 65 63
37 43 42 38 40 43 44 40 41 44 47 50 48 51 46 43 44 51 48 47 47 47 54 60 61 61 64 68 69 68 64 66
42 43 39 37 38 43 44 42 42 47 50 51 55 57 55 52 52 51 49 48 48 52 56 61 65 64 66 67 68 71 70 71
45 43 39 39 41 43 41 44 48 49 52 52 54 55 56 55 56 56 59 55 55 59 61 66 64 67 68 71 72 74 73 73
49 44 41 39 43 46 45 45 50 51 54 53 53 54 52 52 57 58 57 61 60 61 64 65 64 64 68 70 73 74 74 79
48 44 41 40 42 51 54 51 50 54 56 55 55 55 58 58 60 60 61 62 58 61 62 64 64 65 65 68 73 74 75 78
48 44 44 40 42 48 56 56 56 56 57 56 54 57 59 60 60 65 67 64 62 61 61 61 62 63 64 65 69 69 74 76
49 41 42 42 43 46 51 56 59 61 60 59 61 61 62 63 65 65 68 65 63 60 63 62 63 66 65 66 65 66 74 78
44 45 44 42 43 42 48 51 59 64 60 60 63 64 62 64 66 66 70 66 64 64 64 66 67 68 66 69 71 69 70 72
45 45 45 43 41 42 43 44 48 51 53 52 53 55 59 63 67 68 68 67 66 66 64 69 70 73 72 69 70 68 70 73
44 45 45 42 42 40 38 39 38 39 43 49 56 57 58 59 59 62 64 61 63 66 67 69 72 71 74 73 69 69 69 72
45 45 47 44 46 39 37 42 43 42 48 61 70 65 62 64 66 66 63 62 61 62 62 61 68 66 75 80 78 75 75 75
46 48 48 48 44 40 44 53 56 55 62 80 87 73 76 81 77 76 70 68 68 77 75 70 71 64 73 75 79 80 82 87
53 56 61 56 49 46 55 60 58 67 75 78 82 82 83 83 77 76 84 86 80 77 85 84 86 83 69 75 74 84 85 93
67 76 71 66 57 59 65 67 76 78 84 83 80 79 81 79 81 82 89 98 89 86 82 83 81 82 67 70 74 84 88 89

GFSFLT1_sfc_rhum_141.txt.gz
RH
47 51 53 58 59 61 64 65 68 65 66 61 62 64 65 67 70 67 73 71 69 77 72 76 72 72 74 74 79 81 88 93
51 56 61 61 63 62 64 68 68 66 70 70 69 72 68 63 64 62 66 67 67 76 78 74 73 76 76 74 76 81 84 81
53 58 62 65 67 65 59 61 66 68 70 69 72 76 72 63 62 61 64 63 68 66 73 75 75 78 78 78 80 85 90 80
54 55 64 72 70 63 57 61 67 70 70 71 70 69 68 67 65 66 63 63 70 71 71 74 76 77 81 81 80 80 88 87
52 57 70 72 66 64 61 63 65 65 74 76 78 80 80 77 73 68 68 65 67 68 70 72 75 76 73 70 69 71 74 84
54 61 62 65 65 67 67 66 68 71 74 76 83 82 80 75 73 74 71 70 67 65 70 71 68 66 67 69 66 70 70 78
56 52 50 60 66 68 70 69 71 72 74 76 79 80 77 78 78 79 76 74 72 67 65 67 67 68 70 71 71 68 68 71
57 54 56 62 67 68 68 71 73 72 74 75 73 75 76 77 80 81 79 76 75 74 72 69 70 69 70 70 72 73 72 75
58 57 58 61 64 67 69 71 73 73 74 74 74 75 78 78 81 82 79 77 75 73 74 72 72 71 71 71 74 73 72 78
62 56 60 68 73 74 73 74 74 75 77 78 77 78 79 81 81 81 76 76 64 75 74 76 73 74 74 73 77 76 74 75
58 54 59 69 73 76 77 77 77 79 78 77 76 77 70 70 80 75 74 72 72 71 74 74 74 74 75 77 81 74 75 77
83 59 56 65 70 72 77 79 79 80 79 78 79 78 74 72 69 71 78 75 66 70 73 75 73 75 76 79 73 75 80 80
72 58 62 65 67 69 74 79 80 78 78 78 79 79 80 80 76 77 79 76 74 70 70 72 71 73 76 81 80 76 79 82
82 75 66 65 64 66 65 70 76 68 72 72 73 77 79 80 80 80 78 75 73 71 70 74 71 74 74 74 81 80 78 81
76 75 75 75 68 53 52 59 65 67 74 78 82 85 85 87 85 85 82 77 79 78 74 75 73 71 71 73 75 77 77 77
76 80 80 76 58 53 55 66 70 73 84 90 91 89 89 89 90 88 89 84 81 81 78 76 75 67 68 78 82 80 82 82
77 74 67 53 53 61 66 77 80 81 89 94 94 90 92 94 93 93 89 89 88 87 88 82 84 66 69 68 77 86 85 87
74 67 65 64 68 70 76 81 81 89 92 93 94 94 94 96 95 94 95 96 95 92 91 90 90 82 69 72 76 88 92 94
76 72 74 80 78 79 84 85 90 92 94 94 92 94 96 96 96 97 97 97 97 97 91 89 90 84 66 71 77 95 94 92

GFSFLT1_sfc_rhum_144.txt.gz
RH
56 59 61 65 70 70 67 67 69 68 72 70 71 66 72 67 68 73 71 76 76 79 78 79 77 78 79 79 81 81 92 88
60 62 66 70 71 69 68 68 72 73 75 76 76 79 74 68 66 68 74 74 72 76 78 76 76 81 81 79 80 83 91 82
62 66 69 72 69 66 68 70 73 76 77 79 77 80 77 74 70 70 72 72 74 67 76 78 78 82 79 79 81 84 90 84
64 64 77 75 69 69 69 73 75 78 77 77 77 77 78 74 75 75 72 70 72 74 73 78 81 80 80 80 75 80 86 88
61 69 81 73 74 73 72 72 74 74 78 82 83 85 88 86 84 78 75 72 70 73 76 77 78 75 72 69 65 72 74 84
65 72 72 69 73 78 78 76 77 78 79 82 84 85 86 84 85 83 82 78 71 71 75 78 78 75 72 73 74 73 71 75
66 66 61 69 77 80 80 76 79 78 78 80 83 85 84 86 86 87 85 83 78 76 74 79 78 78 79 77 73 72 73 73
65 64 67 71 76 80 76 77 80 79 80 80 82 85 85 86 86 85 84 83 81 81 81 80 80 78 80 77 75 75 74 77
59 63 68 69 70 76 78 78 80 80 80 83 84 83 86 87 85 86 85 86 82 82 82 77 78 78 80 79 79 76 73 77
67 67 69 67 66 78 80 79 81 82 83 84 84 84 85 86 85 84 86 83 70 80 81 77 78 79 80 84 79 81 80 81
65 68 68 68 70 74 78 81 82 82 82 81 81 82 82 85 85 85 84 82 80 78 80 73 77 79 80 78 77 77 79 81
72 67 71 71 75 75 78 81 84 80 81 82 83 84 81 79 81 85 83 82 78 75 76 74 77 79 79 80 74 77 80 79
72 70 81 81 76 74 75 76 80 84 80 79 85 83 80 85 86 83 83 82 77 76 77 75 76 78 77 81 81 78 80 81
84 78 76 76 74 74 84 75 73 74 74 75 81 82 84 88 89 83 82 84 82 76 76 76 75 77 80 76 78 77 76 78
78 79 77 74 78 80 82 70 71 74 77 81 86 88 90 91 89 85 84 84 86 79 78 77 74 74 73 76 73 79 78 77
79 82 85 82 79 68 65 74 77 77 82 88 92 91 90 90 90 90 85 85 84 80 79 78 75 71 67 79 74 77 79 78
79 83 82 82 61 71 74 83 86 84 89 94 96 91 91 94 94 94 90 86 88 92 92 88 86 66 68 69 77 84 80 86
83 86 83 71 71 77 85 86 82 86 92 91 95 95 96 97 95 93 96 97 96 92 94 95 95 87 68 69 73 91 92 94
89 84 79 81 82 85 87 85 88 91 94 96 94 95 97 96 97 98 98 98 98 98 96 94 93 86 67 70 75 98 95 94

GFSFLT1_sfc_rhum_147.txt.gz
RH
65 67 69 72 73 71 69 71 71 73 72 71 73 75 75 74 79 77 77 78 76 80 78 80 81 80 81 80 81 82 91 87
65 67 72 76 73 70 71 73 76 75 78 79 81 86 82 79 76 77 76 77 77 78 82 82 83 84 82 79 80 83 92 82
67 74 76 72 72 74 75 77 79 81 82 85 84 85 82 82 78 77 75 74 77 69 81 82 83 83 80 81 80 87 90 86
71 72 79 75 76 78 78 82 83 82 81 80 82 82 82 82 83 80 79 73 77 80 79 82 84 84 84 82 82 86 88 90
69 76 80 75 83 80 81 79 79 78 82 81 83 89 93 92 90 86 82 77 77 78 80 82 84 86 84 81 76 83 78 81
74 80 75 79 82 87 86 81 79 79 81 84 85 90 91 90 88 88 85 84 78 78 81 85 85 86 86 86 82 80 78 78
76 72 70 81 84 86 83 77 80 81 82 84 86 89 88 90 90 91 90 87 84 82 80 84 84 85 87 88 79 74 80 78
78 74 76 76 74 82 82 80 83 82 84 84 86 88 89 91 92 92 91 89 89 87 85 86 84 84 86 87 84 84 84 87
73 72 76 73 75 81 82 81 83 81 83 84 85 86 91 92 90 91 91 90 88 87 81 83 82 83 86 81 84 83 82 88
71 71 71 69 71 76 80 76 77 79 79 84 87 87 86 89 88 88 90 85 70 87 78 84 83 84 88 82 84 83 82 84
66 65 67 67 76 81 79 76 77 77 79 81 82 85 84 86 82 85 87 86 81 85 80 82 83 86 90 85 82 80 79 81
70 72 67 75 81 83 84 83 82 82 80 84 86 82 82 84 83 86 88 82 82 83 81 79 82 83 83 83 77 78 79 79
72 71 77 83 83 80 82 83 81 81 78 79 80 82 84 82 82 83 85 81 80 82 81 79 80 81 76 80 79 76 79 79
83 80 84 81 80 80 83 78 81 79 78 80 81 82 83 83 79 83 84 80 78 80 78 79 76 79 79 75 78 76 76 77
86 87 85 85 81 86 87 84 80 74 77 79 84 87 88 86 82 85 85 84 80 82 80 80 76 73 68 70 71 74 75 75
85 88 90 88 89 90 84 80 75 77 84 90 93 92 91 89 85 86 85 84 84 84 82 82 80 71 64 80 72 75 74 77
84 87 88 90 87 81 77 84 91 88 90 96 95 91 92 95 92 91 88 86 89 91 91 88 89 63 66 68 78 82 80 85
86 89 90 86 81 77 86 93 90 91 90 93 95 94 94 96 92 90 93 96 93 93 95 95 96 94 65 67 76 91 93 96
91 92 90 81 79 83 91 86 92 90 94 96 93 95 96 94 95 95 95 96 98 100 98 97 94 92 67 69 79 95 96 96

GFSFLT1_sfc_rhum_153.txt.gz
RH
54 52 53 51 53 58 62 63 67 66 60 60 57 56 56 54 54 59 65 62 65 60 59 64 59 55 56 57 62 58 59 57
54 56 58 56 57 57 61 66 67 57 53 54 56 59 56 56 53 63 64 64 65 63 60 61 60 60 63 64 60 63 56 58
59 60 56 55 58 60 61 62 61 58 54 55 54 54 57 56 55 60 62 65 66 59 64 63 64 60 65 65 66 61 57 59
61 62 57 59 60 61 58 59 60 63 64 56 56 58 56 53 53 54 61 63 65 66 64 63 64 63 64 66 66 68 64 59
58 60 60 58 62 62 60 62 61 62 59 55 56 46 50 57 56 56 57 62 64 65 66 64 67 65 66 62 60 64 64 64
60 58 55 54 60 60 61 60 60 61 60 58 54 58 58 58 57 61 63 62 62 63 66 67 67 64 64 66 64 64 62 62
60 56 58 57 58 60 61 58 57 58 58 60 61 63 62 60 60 60 61 61 59 63 64 66 64 61 63 62 63 64 62 61
61 60 59 61 61 60 59 55 60 60 61 61 62 64 63 64 62 61 62 61 58 64 65 66 61 62 62 61 61 62 60 61
61 60 58 58 62 60 58 60 66 65 64 66 65 64 62 63 67 64 63 61 56 62 64 66 65 62 60 60 58 58 58 58
63 58 58 61 62 67 66 63 65 66 67 71 71 67 66 67 67 63 63 61 49 60 61 64 66 60 59 59 57 58 57 58
63 57 62 61 64 63 68 68 69 70 70 69 68 68 67 67 66 62 59 54 54 56 58 59 52 53 56 54 56 57 56 56
64 58 60 62 65 70 71 73 74 74 72 69 72 69 67 66 64 57 54 54 56 57 57 55 48 49 50 49 49 53 55 56
65 65 66 68 72 69 73 72 72 70 70 75 75 72 68 63 62 56 54 54 58 58 53 57 56 53 50 51 52 52 53 56
68 69 70 71 74 74 74 72 71 71 69 73 75 68 63 64 64 57 53 54 57 58 53 50 50 53 52 50 52 52 52 54
70 72 73 71 73 74 75 77 74 70 73 74 77 67 65 66 64 57 55 55 57 59 60 56 53 50 49 48 48 48 49 53
73 71 72 72 75 76 77 77 74 72 74 81 82 78 69 68 70 64 60 59 59 59 58 55 53 51 53 57 49 52 51 53
69 72 72 75 77 79 81 79 80 79 83 91 95 77 74 80 73 74 68 65 70 75 69 63 59 51 69 75 65 63 62 64
82 76 78 78 79 84 82 82 82 85 94 96 97 89 86 86 76 73 80 86 80 82 89 82 85 77 68 76 79 81 83 86
85 84 84 84 86 81 85 87 91 95 97 96 92 88 88 85 90 91 92 91 92 93 92 90 88 83 70 73 76 84 88 89

GFSFLT1_sfc_rhum_156.txt.gz
RH
36 35 33 33 39 48 51 51 55 53 48 47 41 39 38 37 40 47 53 49 53 48 45 53 46 42 43 47 52 47 46 46
37 37 39 39 44 48 50 55 56 46 41 40 41 39 39 39 41 52 52 53 54 52 45 48 46 48 53 54 50 49 43 47
40 41 42 43 44 47 49 50 50 44 39 39 37 37 38 38 42 50 51 53 54 46 52 50 54 48 56 56 57 50 43 47
41 44 45 44 45 49 47 46 46 46 47 43 40 42 42 39 39 40 48 51 54 56 54 54 55 51 50 55 56 58 50 46
37 42 43 44 45 47 43 45 45 49 46 41 42 29 31 37 40 42 45 51 53 55 57 55 58 51 56 52 50 54 54 51
36 41 40 39 44 47 47 47 46 47 46 44 40 37 41 40 43 51 52 52 52 52 56 57 56 51 56 58 57 56 48 50
35 40 40 40 42 45 48 48 44 47 47 46 44 47 44 44 46 46 46 45 47 55 54 55 55 52 53 52 55 57 55 52
40 43 43 43 46 47 46 40 43 45 47 47 48 50 50 51 47 45 47 44 47 55 53 54 50 53 53 52 53 54 53 52
44 43 44 44 47 47 43 41 46 49 51 50 49 48 45 48 50 48 50 46 45 51 53 53 52 50 49 50 44 46 52 50
45 42 44 45 46 47 46 45 47 49 51 53 55 54 53 54 57 51 49 46 40 49 50 51 49 46 47 46 43 47 48 49
47 44 46 44 46 46 52 51 49 53 57 58 57 57 57 54 51 50 47 44 43 45 45 41 40 42 42 40 38 45 45 43
47 44 44 47 47 47 54 56 59 63 62 62 61 56 56 54 49 47 45 45 43 42 42 40 38 38 38 38 38 41 42 44
47 47 48 52 53 54 61 60 61 62 59 62 63 60 55 53 50 47 47 44 45 42 41 42 40 40 39 40 40 40 42 44
53 54 58 56 58 60 60 62 59 60 60 59 62 60 55 53 49 47 44 44 45 43 41 40 40 43 40 39 40 40 42 44
48 56 62 62 61 62 61 63 60 60 58 57 64 60 56 50 49 45 45 44 45 45 46 45 43 40 38 38 37 38 40 43
41 51 58 60 63 62 58 61 65 63 57 66 72 66 60 56 52 50 48 46 45 46 46 45 44 42 42 44 38 40 41 44
32 33 44 52 56 59 60 67 70 67 71 84 92 74 66 68 59 59 54 52 55 57 53 50 49 42 71 70 54 48 50 54
44 60 60 59 61 65 72 76 73 77 84 91 99 99 91 94 68 57 67 79 69 76 86 78 86 79 70 72 70 69 73 81
67 68 66 67 66 70 75 74 80 91 100 98 98 96 91 82 85 86 88 94 91 92 89 88 82 85 69 69 71 87 84 81